Regional Weather Roundup
Issued by NWS Kansas City/Pleasant Hill, MO

Home | Current Version | Previous Version | Graphics & Text | Print | Product List | Glossary Off
Versions: 1 2 3 4 5 6 7 8 9 10 11 12 13 14 15 16 17 18 19 20 21 22 23 24 25 26 27

000
ASUS43 KEAX 230910
RWREAX

WEATHER ROUNDUP FOR EASTERN KANSAS AND NORTHWEST MISSOURI
NATIONAL WEATHER SERVICE KANSAS CITY/PLEASANT HILL MO
400 AM CDT WED AUG 23 2017

KSZ040-057-103>105-MOZ028-029-037-043-231000-
...KANSAS CITY METROPOLITAN AREA...

CITY           SKY/WX    TMP DP  RH WIND       PRES   REMARKS
K.C. INTL      CLEAR     58  53  84 N6        30.16F
K.C. DOWNTOWN  CLEAR     61  57  87 CALM      30.16S
LEES SUMMIT    CLEAR     60  56  86 MISG      30.16F
OLATHE - IXD   CLEAR     56  53  90 N6        30.17S
OLATHE - OJC   CLEAR     60  54  80 N5        30.16S
LAWRENCE       CLEAR     57  55  93 CALM      30.17R

$$

MOZ001>008-011>017-020>025-030>033-038>040-044>046-053-054-231000-
...NORTHERN AND CENTRAL MISSOURI...

CITY           SKY/WX    TMP DP  RH WIND       PRES   REMARKS
ST. JOSEPH     CLEAR     53  53 100 CALM      30.17S
MOSBY          SUNNY     55  54  94 CALM      30.17S
WARRENSBURG    PTCLDY    55  52  88 CALM      30.15S
WHITEMAN AFB   PTCLDY    55  55 100 N3        30.13F
CLINTON        CLEAR     57  55  94 NE3       30.15S
SEDALIA        CLEAR     58  57  97 N3        30.15F
WARSAW         NOT AVBL
CHILLICOTHE      N/A     54  54 100 CALM      30.16F
KIRKSVILLE     CLEAR     55  32  41 NW6       30.15S

$$

MOZ041-047>049-056>058-063>065-088>090-097-231000-
...EASTERN AND SOUTHERN MISSOURI...

CITY           SKY/WX    TMP DP  RH WIND       PRES   REMARKS
ST. LOUIS INTL CLEAR     60  57  89 NW3       30.09S
SPIRIT OF STL  CLEAR     58  57  97 CALM      30.08F
COLUMBIA       CLEAR     57  54  89 N7        30.13S
JEFFERSON CITY CLEAR     61  58  90 W3        30.12S
ROLLA          CLEAR     59  56  89 CALM      30.13S
OSAGE BEACH    CLEAR     61  55  81 CALM      30.14R
SPRINGFIELD    CLOUDY    64  62  93 NE6       30.11F
BRANSON          N/A     68  63  83 N5        30.11S
JOPLIN         CLOUDY    65  62  90 NE5       30.12S
WEST PLAINS    PTCLDY    65  60  84 N5        30.10S

$$

IAZ060-094-KSZ022-034>040-054-083-096-NEZ052-066-093-231000-
...KANSAS...SOUTHEAST NEBRASKA AND IOWA...

CITY           SKY/WX    TMP DP  RH WIND       PRES   REMARKS
TOPEKA         CLEAR     57  55  93 CALM      30.17S
MANHATTAN      PTCLDY    54  53  97 CALM      30.18S
EMPORIA        CLEAR     57  54  89 NW3       30.17R
CHANUTE        PTCLDY    62  55  77 NE6       30.14S
WICHITA        CLEAR     63  55  75 NE7       30.16S
OMAHA          CLEAR     59  54  83 CALM      30.17S
LINCOLN        CLEAR     56  54  93 CALM      30.18F
FALLS CITY     CLEAR     54  53  97 W3        30.17S
LAMONI         CLEAR     56  51  84 NW5       30.16S
DES MOINES     CLEAR     57  53  86 W3        30.14S

$$





USA.gov is the U.S. government's official web portal to all federal, state and local government web resources and services.